Regional Weather Roundup
Issued by NWS

Home | Current Version | Previous Version | Text Only | Print | Product List | Glossary On
Versions: 1 2 3 4 5 6 7 8 9 10 11 12 13 14 15 16 17 18 19 20 21 22 23 24 25 26 27 28 29 30 31 32 33 34 35 36 37 38 39 40 41 42 43 44 45 46 47 48 49 50
000
ASUS42 KFFC 280503
RWRGA
WEATHER ROUNDUP FOR GEORGIA
NATIONAL WEATHER SERVICE PEACHTREE CITY GA
100 AM EDT THU JUL 28 2016

NOTE: "FAIR" INDICATES FEW OR NO CLOUDS BELOW 12,000 FEET WITH NO
SIGNIFICANT WEATHER AND/OR OBSTRUCTIONS TO VISIBILITY.

* = USE WITH CAUTION. THE STATIONS MARKED WITH AN ASTERISK MAY NOT
REPORT WEATHER SUCH AS PRECIPITATION, FOG, OR THUNDER AND ARE NOT
QUALITY CONTROLLED BY NWS.

THE REMARK "TC" DENOTES TEMPERATURE READING IN DEGREES CELSIUS.

GAZ001>058-280600-
NORTH GEORGIA

CITY           SKY/WX    TMP DP  RH WIND       PRES   REMARKS
ATLANTA        PTCLDY    78  67  68 SW6       30.06R
ATHENS         CLEAR     80  69  69 VRB5      30.03R
CHAMBLEE       CLEAR     81  65  58 W7        30.06R
PEACHTREE CITY CLEAR     74  71  91 CALM      30.06S
ROME           CLEAR     77  68  73 CALM      30.02S
WEST ATLANTA   CLEAR     80  65  59 CALM      30.05R
GAINESVILLE    CLEAR     79  66  64 W9        30.08R
CARTERSVILLE   CLEAR     74  69  85 CALM      30.04S


CITY           SKY/WX    TMP DP  RH WIND       PRES   REMARKS
DALTON*        CLEAR     79  70  73 CALM      30.03S
MARIETTA       CLEAR     78  68  70 SW3       30.06R
CANTON*        CLEAR     79  61  53 W5        30.08R
BLAIRSVILLE*     N/A    N/A N/A N/A MISG      30.09F
$$

GAZ059>098-102>109-280600-
CENTRAL GEORGIA

CITY           SKY/WX    TMP DP  RH WIND       PRES   REMARKS
AUGUSTA-BUSH   CLEAR     83  70  64 SW6       29.99S
AUGUSTA-DANIEL CLEAR     86  69  56 VRB5      30.02R HX  90
COLUMBUS       PTCLDY    79  69  71 W6        30.05R
MACON          CLEAR     81  69  67 W6        30.03S
ROBINS AFB     CLEAR     84  71  64 W8        30.02S


CITY           SKY/WX    TMP DP  RH WIND       PRES   REMARKS
LAGRANGE*      MOCLDY    79  76  91 CALM      30.06S
MILLEDGEVILLE* CLEAR     81  73  78 CALM      30.03S
$$

GAZ099>101-110>166-280600-
SOUTH GEORGIA

CITY           SKY/WX    TMP DP  RH WIND       PRES   REMARKS
SAVANNAH       CLEAR     83  74  74 S8        30.02S
VALDOSTA       CLEAR     77  74  90 CALM      30.05S
ALMA           PTCLDY    78  71  79 CALM      30.04R
ST SIMONS      CLEAR     84  75  74 SW8       30.04R HX  92
ALBANY         CLEAR     80  72  76 W5        30.06S
HUNTER AFB     CLEAR     83  78  87 S7        30.00S HX  93
MOODY AFB      CLEAR     82  74  77 SW5       30.04F
BRUNSWICK      CLEAR     82  79  89 SW6       30.05R HX  93


CITY           SKY/WX    TMP DP  RH WIND       PRES   REMARKS
BAINBRIDGE*    CLEAR     79  73  83 CALM      30.05F
MOULTRIE*      CLEAR     81  73  78 CALM      30.06F
VIDALIA*       CLEAR     81  70  69 CALM      30.03S
WAYCROSS*      PTCLDY    82  74  77 W5        30.04S
DOUGLAS*       CLEAR     79  72  78 SW5       30.06S
$$



USA.gov is the U.S. government's official web portal to all federal, state and local government web resources and services.